Home   Weather   Lampertheim   Past weeks

Flag for Germany Past Weather in Lampertheim, Hesse, Germany — Yesterday and Last 2 Weeks

Now
45 °F

Partly sunny.


Feels Like: 40 °F
Forecast: 48 / 53 °F
Wind: 8 mph from Southwest

Location: Frankfurt-M-Flughafen Airport

Current Time: Feb 20, 2017 at 9:41:43 am

Latest Report: Feb 20, 2017 at 9:20 am


Visibility: N/A

Pressure: 30.15 "Hg

Humidity: 81%

Dew Point: 39 °F

Location of LampertheimLocation

Past Weather in Lampertheim — Graph

°F

Lampertheim Temperature Yesterday

Maximum temperature yesterday: 48 °F (at 3:50 pm)
Minimum temperature yesterday: 25 °F (at 7:20 am)
Average temperature yesterday: 37 °F

High & Low Weather Summary for the Past Weeks

 TemperatureHumidityPressure
High54 °F (Feb 16, 2:20 pm)100% (Feb 5, 8:50 am)30.60 "Hg (Feb 5, 8:50 am)
Low25 °F (Feb 15, 6:20 am)40% (Feb 14, 3:20 pm)29.59 "Hg (Feb 5, 12:50 pm)
Average38 °F75%30.23 "Hg
* Reported Feb 5 8:20 am — Feb 20 8:20 am, Lampertheim, Weather by CustomWeather, © 2017

Note: Actual official high and low records may vary slightly from our data, if they occured in-between our weather recording intervals... More about our weather records

Advertising

Lampertheim Weather History for the Previous 24 Hours

Scroll right to see more
 ConditionsComfort  
Time TempWeatherWind HumidityBarometerVisibility
8:20 am
Mon, Feb 20
43 °FBroken clouds.6 mph87%30.15 "HgN/A
7:50 am43 °FPartly sunny.7 mph81%30.15 "HgN/A
7:20 am41 °FPassing clouds.9 mph87%30.15 "HgN/A
6:50 am43 °FPassing clouds.9 mph87%30.15 "HgN/A
6:20 am43 °FPassing clouds.8 mph87%30.15 "HgN/A
5:50 am43 °FPassing clouds.8 mph87%30.15 "HgN/A
5:20 am41 °FPassing clouds.7 mph93%30.15 "HgN/A
4:50 am41 °FPassing clouds.8 mph87%30.15 "HgN/A
4:20 am41 °FPassing clouds.6 mph93%30.15 "HgN/A
3:50 am41 °FPassing clouds.6 mph93%30.15 "HgN/A
3:20 am41 °FPassing clouds.8 mph93%30.15 "HgN/A
2:50 am43 °FPartly cloudy.7 mph87%30.18 "HgN/A
2:20 am43 °FPartly cloudy.6 mph87%30.18 "HgN/A
1:50 am43 °FPartly cloudy.3 mph87%30.18 "HgN/A
1:20 am41 °FPartly cloudy.2 mph87%30.18 "HgN/A
12:50 am41 °FPartly cloudy.1 mph87%30.18 "HgN/A
12:20 am41 °FPartly cloudy.1 mph93%30.18 "HgN/A
11:50 pm
Sun, Feb 19
41 °FSprinkles. Partly cloudy.1 mph93%30.18 "HgN/A
11:20 pm41 °FPartly cloudy.1 mph93%30.18 "HgN/A
10:50 pm41 °FScattered showers. Partly cloudy.1 mph93%30.18 "HgN/A
10:20 pm43 °FPartly cloudy.3 mph87%30.18 "HgN/A
9:50 pm43 °FPassing clouds.6 mph87%30.18 "HgN/A
9:20 pm45 °FSprinkles. Passing clouds.5 mph76%30.18 "HgN/A
8:50 pm45 °FPassing clouds.5 mph76%30.18 "HgN/A
8:20 pm46 °FPassing clouds.5 mph66%30.15 "HgN/A
7:50 pm45 °FPassing clouds.8 mph76%30.15 "HgN/A
7:20 pm45 °FPassing clouds.7 mph76%30.15 "HgN/A
6:50 pm45 °FPassing clouds.6 mph76%30.15 "HgN/A
6:20 pm45 °FPassing clouds.8 mph76%30.15 "HgN/A
5:50 pm46 °FPassing clouds.8 mph71%30.15 "HgN/A
5:20 pm46 °FBroken clouds.8 mph71%30.15 "HgN/A
4:50 pm46 °FScattered showers. Partly sunny.8 mph71%30.15 "HgN/A
4:20 pm46 °FScattered showers. Broken clouds.7 mph66%30.15 "HgN/A
3:50 pm48 °FBroken clouds.8 mph66%30.15 "HgN/A
3:20 pm46 °FScattered showers. Broken clouds.7 mph66%30.18 "HgN/A
2:50 pm45 °FPassing clouds.7 mph71%30.18 "HgN/A
2:20 pm45 °FPassing clouds.8 mph71%30.18 "HgN/A
1:50 pm45 °FSunny.8 mph66%30.18 "Hg10 mi
1:20 pm45 °FPassing clouds.8 mph71%30.21 "HgN/A
12:50 pm45 °FSunny.8 mph71%30.21 "Hg10 mi
12:20 pm41 °FSunny.9 mph76%30.24 "Hg10 mi
11:50 am39 °FSunny.9 mph81%30.24 "Hg10 mi
11:20 am37 °FSunny.7 mph81%30.24 "Hg10 mi
10:50 am36 °FPassing clouds.6 mph87%30.24 "HgN/A
10:20 am34 °FPartly sunny.5 mph93%30.24 "Hg5 mi
9:50 am34 °FPartly sunny.3 mph93%30.24 "HgN/A
9:20 am32 °FPartly sunny.2 mph93%30.27 "HgN/A
Weather by CustomWeather, © 2017

See weather overviewHow to use our weather pages